Showing default

INTELSAT 11 (PAS 11), 32253

Orbit data source: Space-Track

INTELSAT 11 (PAS 11), 32253 is a payload satellite owned by Intelsat Ltd (US) (US) in GEO that was launched on Fri, 05 Oct 2007 UTC via an ARIANE 5GS launch vehicle from the French Guiana (FRGUI). Payload-class satellites include a variety of spacecraft equipped with specific instruments for various scientific and technological missions. These include communications satellites like Starlink; space stations such as the ISS; scientific satellites like the Hubble; Earth observation satellites from companies like Planet Labs, Umbra, and HawkEye 360; GPS; miniature CubeSats for education and research; and military/defense satellites.

Not visible in the next 10 days
Identifier
32253, 2007-044B
Orbit
GEO
Country
Flag of UnknownUnknown / ITSO
Related business
Manufacturer
OSC
Mission
On reserve Commercial Communications
Bus & Motor
OSC STAR 2.4, BT-4
Mass
2,450 kg wet, 1,145 kg dry
Launch date (UTC)
2007-10-05 (18 years ago)
Launch vehicle
ARIANE 5GS
Launch site
French Guiana (FRGUI)
Object type
Payload
Rocket body
Debris
Shape & HBR
Box + 2 Pan, 11.2 m
Radar Cross Section
24.482 m², Large (>1 m²)

Expand to show TLE details & history
Last TLE update: 14 hours ago

TLE from 14 hours ago
0 INTELSAT 11 (PAS 11)
1 32253U 07044B   25301.62753677  .00000096  00000-0  00000-0 0  9999
2 32253   2.9572  81.4995 0008779 141.2608 104.4771  0.99047608 66156
Epoch: 2025-10-28T15:03Z
TLE epoch observation values (Epoch: 2025-10-28T15:03:39.176Z)
Latitude
-2.68323°
Longitude
64.14682°
Altitude
36,142.593 km
Speed
3.061 km/s
True Right ascension
21h 49m 05s
True Declination
-2° 40' 50"
Sunlit
Object was in daylight at epoch
Visualization orbit readout
Latitude
Unknown
Longitude
Unknown
Altitude
Unknown
Speed
Unknown
Apparent Right ascension
Unknown
Apparent Declination
Unknown
Sunlit
N/A
Visualization observer readout
Local Sidereal Time
00:55:06
Azimuth
Unknown
Elevation
Unknown
Doppler factor
Unknown
Orbital elements
Apogee altitude
36,171.686 km
Perigee altitude
36,097.042 km
Semi-major axis
42,512.501 km
Eccentricity
0.00088
Inclination
2.9572°
RAAN
81.4995°
Arg. of periapsis
141.2608°
True anomaly
104.57448°
Mean anomaly
104.4771°
Eccentric anomaly
104.52579°
Mean motion
0.24761 °/min
Orbital period
1,453.9 mins
BSTAR
0
Loading maneuver chart data...
Computing Atmospheric mass density...
Loading historical data...
Loading historical data...
Loading historical data...
Loading historical data...
Loading historical data...
Loading historical data...
Loading historical data...
Other satellites on launch #44 in the year 2007 (2007-10-05 UTC)

Documentation

Showing up to 5 results
|